EW7002 Weather Reports


time (UTC)temp
F
wind
direction
speed
knots
gust
knots
rain 1hr
in
rain 24hr
in
rain mn
in
humidity
%
barometer
mb
20260504190041 50 349 8.7 20.9 0.00 0.00 0.00 50 1013.7
20260504184508 50 312 10.4 18.2 0.00 0.00 0.00 50 1013.6
20260504183009 51 321 10.4 18.2 0.00 0.00 0.00 50 1013.5
20260504181503 51 332 7.8 19.1 0.00 0.00 0.00 51 1013.5
20260504180002 50 342 11.3 18.2 0.00 0.00 0.00 51 1013.7
20260504174601 50 355 9.6 20.0 0.00 0.00 0.00 53 1013.7
20260504173059 50 351 11.3 20.9 0.00 0.00 0.00 52 1013.8
20260504171556 50 339 10.4 17.4 0.00 0.00 0.00 52 1013.6
20260504120109 43 3 10.4 14.8 0.00 0.01 0.00 66 1010.1
20260504081511 38 216 0.9 3.5 0.00 0.01 0.00 73 1007.9
20260504044535 44 283 0.0 1.7 0.00 0.01 0.01 56 1008.8
20260504043039 43 347 0.9 2.6 0.00 0.01 0.01 56 1008.9
20260504041528 44 255 0.9 2.6 0.00 0.01 0.01 54 1008.9
20260504040104 45 314 0.9 4.3 0.00 0.01 0.01 53 1008.9
20260504034613 45 89 0.0 1.7 0.00 0.01 0.01 52 1009.2
20260504033058 46 269 0.0 2.6 0.00 0.01 0.01 50 1009.2
20260504031602 47 344 0.9 2.6 0.00 0.01 0.01 46 1009.1
20260504030052 48 240 0.0 2.6 0.00 0.01 0.01 43 1009.0
20260504024554 50 279 0.9 2.6 0.00 0.01 0.01 40 1009.0
20260504023050 53 250 0.9 2.6 0.00 0.01 0.01 35 1008.9
20260504021550 56 324 0.9 2.6 0.00 0.01 0.01 31 1008.7
20260504014552 62 322 1.7 5.2 0.00 0.01 0.01 25 1008.5
20260504013048 64 307 2.6 6.1 0.00 0.01 0.01 23 1008.6
20260504011546 65 293 3.5 9.6 0.00 0.01 0.01 21 1009.0
20260504010039 66 307 5.2 11.3 0.00 0.01 0.01 23 1009.1
20260504004538 67 308 5.2 12.2 0.00 0.01 0.01 22 1009.2
20260504003036 68 320 6.1 14.8 0.00 0.01 0.01 22 1009.2
20260504001537 69 320 6.1 14.8 0.00 0.01 0.01 23 1009.3
20260504000037 69 317 5.2 12.2 0.00 0.01 0.01 24 1009.4
20260503234532 69 330 7.8 14.8 0.00 0.01 0.01 24 1009.6
20260503233029 70 334 6.1 15.6 0.00 0.01 0.01 27 1009.5
20260503231526 69 277 7.8 13.9 0.00 0.01 0.01 27 1009.6
20260503230025 68 331 7.0 12.2 0.00 0.01 0.01 28 1009.6
20260503224526 68 314 6.1 13.9 0.00 0.01 0.01 26 1009.6
20260503223023 68 353 9.6 17.4 0.00 0.01 0.01 26 1009.7
20260503221521 69 323 6.1 14.8 0.00 0.01 0.01 27 1009.8
20260503220018 70 307 5.2 16.5 0.00 0.01 0.01 27 1010.1
20260503214534 68 325 6.1 17.4 0.00 0.01 0.01 26 1010.3
20260503213054 70 319 7.0 13.0 0.00 0.01 0.01 26 1010.4
20260503211603 69 358 11.3 18.2 0.00 0.01 0.01 29 1010.8
20260503210038 68 356 7.8 15.6 0.00 0.01 0.01 29 1011.1
20260503204539 69 344 5.2 13.9 0.00 0.01 0.01 29 1011.2
20260503203041 68 328 6.1 20.9 0.00 0.01 0.01 30 1011.3
20260503201532 68 339 6.1 13.9 0.00 0.01 0.01 31 1011.4
20260503200034 67 290 2.6 10.4 0.00 0.01 0.01 35 1011.7
20260503194523 65 240 1.7 13.0 0.00 0.01 0.01 39 1012.1
20260503193028 65 206 7.0 10.4 0.00 0.01 0.01 39 1012.2
20260503191520 64 222 7.8 12.2 0.00 0.01 0.01 40 1012.4